TimeMST,TemperatureF,Dew PointF,Humidity,Sea Level PressureIn,VisibilityMPH,Wind Direction,Wind SpeedMPH,Gust SpeedMPH,PrecipitationIn,Events,Conditions,WindDirDegrees,DateUTC
12:54 AM,53.1,51.1,93,30.05,10.0,Calm,Calm,-,N/A,,Clear,0,2013-08-29 07:54:00
1:54 AM,52.0,50.0,93,30.09,10.0,Calm,Calm,-,N/A,,Clear,0,2013-08-29 08:54:00
2:54 AM,53.1,50.0,89,30.10,10.0,Calm,Calm,-,N/A,,Clear,0,2013-08-29 09:54:00
3:54 AM,52.0,48.9,89,30.07,10.0,Calm,Calm,-,N/A,,Clear,0,2013-08-29 10:54:00
4:54 AM,50.0,48.0,93,30.06,10.0,Calm,Calm,-,N/A,,Clear,0,2013-08-29 11:54:00
5:54 AM,52.0,48.9,89,30.07,10.0,ENE,3.5,-,N/A,,Clear,70,2013-08-29 12:54:00
6:54 AM,54.0,50.0,86,30.13,10.0,East,3.5,-,N/A,,Partly Cloudy,80,2013-08-29 13:54:00
7:54 AM,63.0,55.0,75,30.13,10.0,Calm,Calm,-,N/A,,Scattered Clouds,0,2013-08-29 14:54:00
8:54 AM,70.0,55.9,61,30.12,10.0,SW,5.8,-,N/A,,Clear,230,2013-08-29 15:54:00
9:54 AM,72.0,54.0,53,30.11,10.0,SE,3.5,-,N/A,,Clear,140,2013-08-29 16:54:00
10:54 AM,73.9,55.0,52,30.10,10.0,Calm,Calm,-,N/A,,Clear,0,2013-08-29 17:54:00
11:54 AM,77.0,54.0,45,30.08,10.0,Calm,Calm,-,N/A,,Scattered Clouds,0,2013-08-29 18:54:00
12:54 PM,78.1,48.9,36,30.08,10.0,ENE,8.1,-,N/A,,Partly Cloudy,70,2013-08-29 19:54:00
1:54 PM,81.0,52.0,36,30.06,10.0,NNE,9.2,18.4,N/A,,Scattered Clouds,30,2013-08-29 20:54:00
2:54 PM,78.1,51.1,39,30.05,10.0,ENE,11.5,-,N/A,,Clear,70,2013-08-29 21:54:00
3:54 PM,77.0,52.0,42,30.04,10.0,ENE,9.2,-,N/A,,Clear,60,2013-08-29 22:54:00
4:54 PM,70.0,57.9,65,30.09,10.0,South,3.5,-,N/A,,Clear,190,2013-08-29 23:54:00
5:54 PM,72.0,59.0,64,30.08,10.0,SSW,5.8,-,N/A,,Clear,210,2013-08-30 00:54:00
6:54 PM,68.0,59.0,73,30.10,10.0,Calm,Calm,-,N/A,,Partly Cloudy,0,2013-08-30 01:54:00
7:54 PM,66.0,55.9,70,30.08,10.0,Calm,Calm,-,N/A,,Overcast,0,2013-08-30 02:54:00
8:54 PM,64.9,57.0,75,30.06,10.0,Calm,Calm,-,N/A,,Overcast,0,2013-08-30 03:54:00
9:54 PM,64.0,57.9,80,30.08,10.0,Calm,Calm,-,N/A,,Mostly Cloudy,0,2013-08-30 04:54:00
10:54 PM,64.0,57.9,80,30.09,10.0,Calm,Calm,-,N/A,,Mostly Cloudy,0,2013-08-30 05:54:00
11:54 PM,63.0,57.9,84,30.09,10.0,SSE,3.5,-,0.00,Rain,Light Rain,150,2013-08-30 06:54:00